Location: Bacharowice
(49.9333°N, 19.5833°E)
Time: 22:53:37
(UTC+00:00)

Cosmos 1656 Rocket - Pass Details

Date: 11 May 2021
Orbit: 794 x 848 km, 71.1° (Epoch: 21 June)

Event Time Altitude Azimuth Distance (km) Brightness Sun altitude
Exits shadow 22:35:26 50° 176° (S) 1,024 3.7 -21.9°
Maximum altitude 22:36:46 69° 114° (ESE) 870 3.6 -21.9°
Drops below altitude 10° 22:42:16 10° 33° (NNE) 2,424 6.9 -21.9°
Sets 22:44:43 0° 31° (NNE) 3,369 7.8 -21.9°
